| time (UTC) | temp F | wind direction | speed MPH | gust MPH | rain 1hr in | rain 24hr in | rain mn in | humidity % | barometer mb |
| 20260503025109 | 63 | 182 | 1.0 | 3.0 | 0.00 | 0.00 | 0.00 | 51 | 1020.4 |
| 20260503024609 | 63 | 182 | 1.0 | 3.0 | 0.00 | 0.00 | 0.00 | 51 | 1020.2 |
| 20260503024109 | 63 | 182 | 1.0 | 3.0 | 0.00 | 0.00 | 0.00 | 52 | 1020.2 |
| 20260503023609 | 63 | 61 | 0.0 | 2.0 | 0.00 | 0.00 | 0.00 | 52 | 1020.1 |
| 20260503023108 | 64 | 61 | 0.0 | 2.0 | 0.00 | 0.00 | 0.00 | 52 | 1020.0 |
| 20260503022608 | 64 | 61 | 0.0 | 2.0 | 0.00 | 0.00 | 0.00 | 53 | 1020.0 |
| 20260503022108 | 64 | 61 | 0.0 | 2.0 | 0.00 | 0.00 | 0.00 | 53 | 1020.0 |
| 20260503021609 | 64 | 61 | 0.0 | 1.0 | 0.00 | 0.00 | 0.00 | 54 | 1020.0 |
| 20260503021106 | 64 | 61 | 0.0 | 1.0 | 0.00 | 0.00 | 0.00 | 54 | 1020.0 |
| 20260503020606 | 65 | 61 | 0.0 | 1.0 | 0.00 | 0.00 | 0.00 | 54 | 1019.8 |
| 20260503020105 | 65 | 61 | 0.0 | 1.0 | 0.00 | 0.00 | 0.00 | 54 | 1019.9 |
| 20260503015607 | 65 | 61 | 0.0 | 0.0 | 0.00 | 0.00 | 0.00 | 53 | 1019.9 |
| 20260503015602 | 65 | 61 | 0.0 | 1.0 | 0.00 | 0.00 | 0.00 | 53 | 1019.8 |
| 20260503014602 | 65 | 61 | 0.0 | 1.0 | 0.00 | 0.00 | 0.00 | 53 | 1019.8 |
| 20260503014102 | 66 | 61 | 0.0 | 0.0 | 0.00 | 0.00 | 0.00 | 53 | 1019.7 |
| 20260503013602 | 66 | 61 | 0.0 | 0.0 | 0.00 | 0.00 | 0.00 | 53 | 1019.5 |
| 20260503013101 | 67 | 61 | 0.0 | 0.0 | 0.00 | 0.00 | 0.00 | 53 | 1019.4 |
| 20260503012605 | 68 | 61 | 0.0 | 0.0 | 0.00 | 0.00 | 0.00 | 51 | 1019.5 |
| 20260503012601 | 67 | 61 | 0.0 | 0.0 | 0.00 | 0.00 | 0.00 | 52 | 1019.4 |
| 20260503011600 | 68 | 61 | 0.0 | 0.0 | 0.00 | 0.00 | 0.00 | 50 | 1019.5 |
| 20260503011104 | 69 | 61 | 0.0 | 1.0 | 0.00 | 0.00 | 0.00 | 48 | 1019.4 |
| 20260503011100 | 69 | 61 | 0.0 | 0.0 | 0.00 | 0.00 | 0.00 | 49 | 1019.5 |
| 20260503010100 | 70 | 61 | 0.0 | 1.0 | 0.00 | 0.00 | 0.00 | 47 | 1019.3 |
| 20260503005600 | 70 | 61 | 0.0 | 1.0 | 0.00 | 0.00 | 0.00 | 46 | 1019.3 |
| 20260503005100 | 71 | 61 | 0.0 | 2.0 | 0.00 | 0.00 | 0.00 | 45 | 1019.3 |
| 20260503004605 | 71 | 61 | 0.0 | 1.0 | 0.00 | 0.00 | 0.00 | 44 | 1019.4 |
| 20260503004600 | 71 | 61 | 0.0 | 2.0 | 0.00 | 0.00 | 0.00 | 45 | 1019.4 |
| 20260503003557 | 72 | 61 | 0.0 | 2.0 | 0.00 | 0.00 | 0.00 | 44 | 1019.4 |
| 20260503003057 | 72 | 61 | 0.0 | 2.0 | 0.00 | 0.00 | 0.00 | 44 | 1019.3 |
| 20260503002556 | 72 | 61 | 0.0 | 3.0 | 0.00 | 0.00 | 0.00 | 43 | 1019.2 |
| 20260503002056 | 72 | 61 | 1.0 | 3.0 | 0.00 | 0.00 | 0.00 | 42 | 1019.3 |
| 20260503001556 | 72 | 61 | 0.0 | 2.0 | 0.00 | 0.00 | 0.00 | 43 | 1019.2 |
| 20260503001054 | 73 | 61 | 0.0 | 2.0 | 0.00 | 0.00 | 0.00 | 43 | 1019.3 |
| 20260503000554 | 73 | 51 | 0.0 | 2.0 | 0.00 | 0.00 | 0.00 | 43 | 1019.2 |
| 20260503000053 | 73 | 51 | 1.0 | 2.0 | 0.00 | 0.00 | 0.00 | 42 | 1019.2 |
| 20260502235551 | 73 | 51 | 0.0 | 2.0 | 0.00 | 0.00 | 0.00 | 43 | 1019.2 |
| 20260502235052 | 73 | 50 | 0.0 | 2.0 | 0.00 | 0.00 | 0.00 | 42 | 1019.2 |
| 20260502234554 | 73 | 26 | 0.0 | 2.0 | 0.00 | 0.00 | 0.00 | 43 | 1019.2 |
| 20260502234550 | 73 | 28 | 0.0 | 2.0 | 0.00 | 0.00 | 0.00 | 43 | 1019.2 |
| 20260502233552 | 73 | 5 | 0.0 | 2.0 | 0.00 | 0.00 | 0.00 | 43 | 1019.2 |
| 20260502233548 | 73 | 5 | 0.0 | 2.0 | 0.00 | 0.00 | 0.00 | 41 | 1019.2 |
| 20260502232548 | 73 | 331 | 0.0 | 2.0 | 0.00 | 0.00 | 0.00 | 43 | 1019.2 |
| 20260502232047 | 73 | 332 | 0.0 | 2.0 | 0.00 | 0.00 | 0.00 | 43 | 1019.2 |
| 20260502231548 | 73 | 53 | 1.0 | 3.0 | 0.00 | 0.00 | 0.00 | 43 | 1019.2 |
| 20260502231050 | 74 | 70 | 1.0 | 3.0 | 0.00 | 0.00 | 0.00 | 42 | 1019.1 |
| 20260502231046 | 73 | 68 | 1.0 | 3.0 | 0.00 | 0.00 | 0.00 | 42 | 1019.2 |
| 20260502230045 | 73 | 15 | 1.0 | 3.0 | 0.00 | 0.00 | 0.00 | 43 | 1019.1 |
| 20260502225548 | 74 | 69 | 1.0 | 3.0 | 0.00 | 0.00 | 0.00 | 41 | 1019.1 |
| 20260502225544 | 73 | 21 | 1.0 | 3.0 | 0.00 | 0.00 | 0.00 | 42 | 1019.1 |
| 20260502224542 | 74 | 51 | 1.0 | 4.0 | 0.00 | 0.00 | 0.00 | 41 | 1019.1 |
| 20260502224042 | 74 | 29 | 1.0 | 4.0 | 0.00 | 0.00 | 0.00 | 41 | 1019.2 |
| 20260502223544 | 74 | 73 | 1.0 | 4.0 | 0.00 | 0.00 | 0.00 | 42 | 1019.2 |
| 20260502223540 | 74 | 72 | 2.0 | 4.0 | 0.00 | 0.00 | 0.00 | 42 | 1019.2 |
| 20260502222542 | 74 | 74 | 1.0 | 4.0 | 0.00 | 0.00 | 0.00 | 44 | 1019.3 |
| 20260502222538 | 74 | 68 | 1.0 | 4.0 | 0.00 | 0.00 | 0.00 | 42 | 1019.3 |
| 20260502221537 | 74 | 76 | 1.0 | 4.0 | 0.00 | 0.00 | 0.00 | 43 | 1019.4 |
| 20260502221037 | 74 | 355 | 1.0 | 4.0 | 0.00 | 0.00 | 0.00 | 44 | 1019.4 |
| 20260502220538 | 74 | 355 | 1.0 | 4.0 | 0.00 | 0.00 | 0.00 | 41 | 1019.3 |
| 20260502220042 | 74 | 61 | 1.0 | 6.0 | 0.00 | 0.00 | 0.00 | 41 | 1019.4 |
| 20260502220037 | 74 | 73 | 2.0 | 6.0 | 0.00 | 0.00 | 0.00 | 43 | 1019.4 |
| 20260502215037 | 75 | 82 | 2.0 | 3.0 | 0.00 | 0.00 | 0.00 | 42 | 1019.4 |
| 20260502214534 | 74 | 76 | 2.0 | 4.0 | 0.00 | 0.00 | 0.00 | 43 | 1019.5 |
| 20260502214034 | 74 | 49 | 1.0 | 4.0 | 0.00 | 0.00 | 0.00 | 43 | 1019.6 |
| 20260502213533 | 74 | 325 | 1.0 | 2.0 | 0.00 | 0.00 | 0.00 | 41 | 1019.6 |
| 20260502213033 | 74 | 11 | 1.0 | 2.0 | 0.00 | 0.00 | 0.00 | 42 | 1019.8 |
| 20260502212533 | 75 | 82 | 1.0 | 3.0 | 0.00 | 0.00 | 0.00 | 42 | 1019.7 |
| 20260502212036 | 75 | 69 | 1.0 | 3.0 | 0.00 | 0.00 | 0.00 | 42 | 1019.8 |
| 20260502212031 | 75 | 92 | 1.0 | 3.0 | 0.00 | 0.00 | 0.00 | 41 | 1019.8 |
| 20260502211032 | 75 | 69 | 1.0 | 3.0 | 0.00 | 0.00 | 0.00 | 40 | 1019.9 |
| 20260502210532 | 75 | 69 | 1.0 | 4.0 | 0.00 | 0.00 | 0.00 | 40 | 1019.9 |
| 20260502210032 | 76 | 60 | 1.0 | 4.0 | 0.00 | 0.00 | 0.00 | 38 | 1020.0 |
| 20260502205531 | 76 | 292 | 1.0 | 3.0 | 0.00 | 0.00 | 0.00 | 42 | 1020.1 |
| 20260502205034 | 76 | 55 | 1.0 | 3.0 | 0.00 | 0.00 | 0.00 | 39 | 1020.1 |
| 20260502205030 | 76 | 5 | 1.0 | 3.0 | 0.00 | 0.00 | 0.00 | 42 | 1020.2 |
| 20260502204634 | 76 | 5 | 1.0 | 3.0 | 0.00 | 0.00 | 0.00 | 43 | 1020.1 |
| 20260502203529 | 76 | 305 | 1.0 | 3.0 | 0.00 | 0.00 | 0.00 | 39 | 1020.2 |
| 20260502203027 | 76 | 90 | 1.0 | 3.0 | 0.00 | 0.00 | 0.00 | 39 | 1020.3 |
| 20260502202527 | 76 | 69 | 1.0 | 3.0 | 0.00 | 0.00 | 0.00 | 42 | 1020.3 |
| 20260502202027 | 76 | 41 | 1.0 | 4.0 | 0.00 | 0.00 | 0.00 | 39 | 1020.3 |
| 20260502201527 | 76 | 320 | 2.0 | 4.0 | 0.00 | 0.00 | 0.00 | 41 | 1020.3 |
| 20260502201027 | 76 | 64 | 1.0 | 4.0 | 0.00 | 0.00 | 0.00 | 39 | 1020.4 |
| 20260502200527 | 76 | 27 | 1.0 | 4.0 | 0.00 | 0.00 | 0.00 | 42 | 1020.4 |
| 20260502200027 | 76 | 5 | 1.0 | 3.0 | 0.00 | 0.00 | 0.00 | 41 | 1020.5 |
| 20260502195527 | 76 | 74 | 1.0 | 3.0 | 0.00 | 0.00 | 0.00 | 39 | 1020.5 |
| 20260502195027 | 76 | 11 | 2.0 | 3.0 | 0.00 | 0.00 | 0.00 | 43 | 1020.5 |
| 20260502194531 | 76 | 82 | 1.0 | 6.0 | 0.00 | 0.00 | 0.00 | 40 | 1020.5 |
| 20260502194527 | 76 | 34 | 2.0 | 6.0 | 0.00 | 0.00 | 0.00 | 41 | 1020.5 |
| 20260502193525 | 76 | 71 | 1.0 | 3.0 | 0.00 | 0.00 | 0.00 | 41 | 1020.5 |
| 20260502193026 | 75 | 13 | 1.0 | 6.0 | 0.00 | 0.00 | 0.00 | 40 | 1020.5 |
| 20260502192526 | 75 | 80 | 2.0 | 8.0 | 0.00 | 0.00 | 0.00 | 38 | 1020.6 |
| 20260502192023 | 75 | 75 | 2.0 | 8.0 | 0.00 | 0.01 | 0.00 | 39 | 1020.5 |
| 20260502191523 | 75 | 65 | 2.0 | 6.0 | 0.00 | 0.02 | 0.00 | 39 | 1020.5 |
| 20260502191023 | 75 | 88 | 1.0 | 4.0 | 0.00 | 0.02 | 0.00 | 37 | 1020.6 |
| 20260502190523 | 75 | 5 | 1.0 | 4.0 | 0.00 | 0.03 | 0.00 | 39 | 1020.7 |
| 20260502190021 | 74 | 333 | 1.0 | 7.0 | 0.00 | 0.04 | 0.00 | 39 | 1020.7 |
| 20260502185521 | 74 | 340 | 1.0 | 7.0 | 0.00 | 0.04 | 0.00 | 38 | 1020.8 |
| 20260502185021 | 74 | 38 | 1.0 | 3.0 | 0.00 | 0.04 | 0.00 | 39 | 1020.9 |
| 20260502184521 | 74 | 50 | 1.0 | 3.0 | 0.00 | 0.05 | 0.00 | 42 | 1020.9 |
| 20260502184019 | 74 | 71 | 1.0 | 4.0 | 0.00 | 0.05 | 0.00 | 40 | 1021.1 |
| 20260502183523 | 74 | 49 | 1.0 | 3.0 | 0.00 | 0.05 | 0.00 | 41 | 1021.3 |
| 20260502183519 | 74 | 91 | 1.0 | 4.0 | 0.00 | 0.05 | 0.00 | 40 | 1021.2 |
| 20260502182521 | 73 | 63 | 1.0 | 4.0 | 0.00 | 0.05 | 0.00 | 39 | 1021.3 |
| 20260502182517 | 74 | 69 | 1.0 | 4.0 | 0.00 | 0.05 | 0.00 | 41 | 1021.3 |
| 20260502181517 | 74 | 350 | 1.0 | 3.0 | 0.00 | 0.05 | 0.00 | 42 | 1021.4 |
| 20260502181017 | 73 | 322 | 1.0 | 3.0 | 0.00 | 0.05 | 0.00 | 40 | 1021.5 |
| 20260502180517 | 72 | 318 | 1.0 | 3.0 | 0.00 | 0.05 | 0.00 | 41 | 1021.6 |
| 20260502170515 | 70 | 265 | 0.0 | 3.0 | 0.00 | 0.05 | 0.00 | 38 | 1022.3 |
| 20260502163513 | 68 | 76 | 0.0 | 2.0 | 0.00 | 0.06 | 0.00 | 35 | 1022.6 |
| 20260502163012 | 67 | 317 | 0.0 | 2.0 | 0.00 | 0.06 | 0.00 | 35 | 1022.6 |
| 20260502162513 | 67 | 12 | 0.0 | 2.0 | 0.00 | 0.06 | 0.00 | 35 | 1022.6 |
| 20260502162013 | 67 | 65 | 0.0 | 2.0 | 0.00 | 0.06 | 0.00 | 35 | 1022.5 |
| 20260502161514 | 67 | 315 | 0.0 | 3.0 | 0.00 | 0.06 | 0.00 | 34 | 1022.6 |
| 20260502161014 | 67 | 44 | 0.0 | 3.0 | 0.00 | 0.06 | 0.00 | 34 | 1022.5 |
| 20260502160514 | 66 | 28 | 0.0 | 2.0 | 0.00 | 0.06 | 0.00 | 33 | 1022.5 |
| 20260502152007 | 64 | 323 | 0.0 | 3.0 | 0.00 | 0.06 | 0.00 | 26 | 1022.3 |
| 20260502151505 | 63 | 186 | 0.0 | 2.0 | 0.00 | 0.06 | 0.00 | 24 | 1022.3 |
| 20260502151004 | 63 | 180 | 0.0 | 2.0 | 0.00 | 0.06 | 0.00 | 22 | 1022.3 |
| 20260502150505 | 62 | 338 | 0.0 | 2.0 | 0.00 | 0.07 | 0.00 | 21 | 1022.4 |
| 20260502130500 | 51 | 331 | 0.0 | 2.0 | 0.00 | 0.26 | 0.00 | 1 | 1021.3 |
| 20260502123458 | 50 | 336 | 0.0 | 1.0 | 0.00 | 0.29 | 0.00 | 1 | 1021.0 |
| 20260502122957 | 50 | 336 | 0.0 | 1.0 | 0.00 | 0.29 | 0.00 | 1 | 1020.9 |
| 20260502122456 | 49 | 336 | 0.0 | 0.0 | 0.00 | 0.29 | 0.00 | 1 | 1020.8 |
| 20260502121954 | 49 | 336 | 0.0 | 0.0 | 0.00 | 0.29 | 0.00 | 1 | 1020.7 |
| 20260502121454 | 49 | 336 | 0.0 | 1.0 | 0.00 | 0.29 | 0.00 | 1 | 1020.6 |
| 20260502120952 | 49 | 336 | 0.0 | 1.0 | 0.00 | 0.30 | 0.00 | 1 | 1020.5 |
| 20260502120456 | 49 | 322 | 0.0 | 0.0 | 0.00 | 0.31 | 0.00 | 1 | 1020.3 |
| 20260502120452 | 49 | 322 | 0.0 | 0.0 | 0.00 | 0.30 | 0.00 | 1 | 1020.4 |
| 20260502115452 | 49 | 322 | 0.0 | 0.0 | 0.00 | 0.32 | 0.00 | 1 | 1020.2 |
| 20260502114952 | 49 | 322 | 0.0 | 1.0 | 0.00 | 0.32 | 0.00 | 1 | 1020.1 |
| 20260502114452 | 49 | 322 | 0.0 | 1.0 | 0.00 | 0.33 | 0.00 | 1 | 1020.1 |
| 20260502113952 | 49 | 322 | 0.0 | 0.0 | 0.00 | 0.34 | 0.00 | 1 | 1020.0 |
| 20260502113453 | 49 | 322 | 0.0 | 0.0 | 0.00 | 0.35 | 0.00 | 1 | 1019.9 |
| 20260502112952 | 49 | 322 | 0.0 | 0.0 | 0.00 | 0.38 | 0.00 | 1 | 1019.9 |
| 20260502112456 | 49 | 322 | 0.0 | 0.0 | 0.00 | 0.40 | 0.00 | 1 | 1019.6 |
| 20260502112452 | 49 | 322 | 0.0 | 0.0 | 0.00 | 0.39 | 0.00 | 1 | 1019.7 |
| 20260502111452 | 49 | 322 | 0.0 | 1.0 | 0.00 | 0.41 | 0.00 | 1 | 1019.6 |
| 20260502110952 | 49 | 322 | 0.0 | 1.0 | 0.00 | 0.42 | 0.00 | 1 | 1019.5 |
| 20260502110452 | 49 | 322 | 0.0 | 1.0 | 0.00 | 0.42 | 0.00 | 1 | 1019.4 |
| 20260502105950 | 49 | 322 | 0.0 | 0.0 | 0.00 | 0.43 | 0.00 | 1 | 1019.3 |
| 20260502105454 | 50 | 322 | 0.0 | 0.0 | 0.00 | 0.44 | 0.00 | 1 | 1019.2 |
| 20260502105450 | 50 | 322 | 0.0 | 0.0 | 0.00 | 0.43 | 0.00 | 1 | 1019.2 |
| 20260502104450 | 50 | 322 | 0.0 | 0.0 | 0.00 | 0.45 | 0.00 | 1 | 1019.1 |
| 20260502103950 | 50 | 322 | 0.0 | 0.0 | 0.00 | 0.45 | 0.00 | 1 | 1019.1 |
| 20260502103451 | 50 | 322 | 0.0 | 0.0 | 0.00 | 0.46 | 0.00 | 1 | 1019.0 |
| 20260502102948 | 50 | 322 | 0.0 | 0.0 | 0.00 | 0.46 | 0.00 | 1 | 1018.9 |
| 20260502102448 | 50 | 322 | 0.0 | 0.0 | 0.00 | 0.47 | 0.00 | 1 | 1018.9 |
| 20260502101946 | 50 | 322 | 0.0 | 0.0 | 0.00 | 0.47 | 0.00 | 1 | 1018.9 |
| 20260502101446 | 50 | 322 | 0.0 | 0.0 | 0.00 | 0.47 | 0.00 | 1 | 1019.0 |
| 20260502100944 | 50 | 322 | 0.0 | 1.0 | 0.00 | 0.48 | 0.00 | 1 | 1019.0 |
| 20260502100444 | 50 | 322 | 0.0 | 1.0 | 0.00 | 0.48 | 0.00 | 1 | 1019.0 |
| 20260502091440 | 51 | 322 | 0.0 | 1.0 | 0.00 | 0.48 | 0.00 | 1 | 1018.8 |
| 20260502091435 | 51 | 322 | 0.0 | 1.0 | 0.00 | 0.48 | 0.00 | 1 | 1018.7 |
| 20260502090436 | 51 | 322 | 0.0 | 0.0 | 0.00 | 0.48 | 0.00 | 1 | 1018.8 |
| 20260502070921 | 53 | 322 | 0.0 | 0.0 | 0.00 | 0.48 | 0.00 | 1 | 1018.7 |
| 20260502070419 | 53 | 322 | 0.0 | 1.0 | 0.00 | 0.48 | 0.00 | 1 | 1018.7 |
| 20260502065919 | 53 | 322 | 0.0 | 1.0 | 0.00 | 0.48 | 0.00 | 1 | 1018.7 |
| 20260502065424 | 53 | 322 | 0.0 | 1.0 | 0.00 | 0.48 | 0.00 | 1 | 1018.7 |
| 20260502065420 | 53 | 322 | 0.0 | 1.0 | 0.00 | 0.48 | 0.00 | 1 | 1018.6 |
| 20260502064416 | 53 | 322 | 0.0 | 0.0 | 0.00 | 0.48 | 0.00 | 1 | 1018.7 |
| 20260502063916 | 53 | 322 | 0.0 | 0.0 | 0.00 | 0.48 | 0.00 | 1 | 1018.8 |
| 20260502063418 | 53 | 322 | 0.0 | 0.0 | 0.00 | 0.48 | 0.00 | 1 | 1018.8 |
| 20260502063414 | 53 | 322 | 0.0 | 0.0 | 0.00 | 0.48 | 0.00 | 1 | 1018.8 |
| 20260502063019 | 53 | 322 | 0.0 | 0.0 | 0.00 | 0.48 | 0.00 | 1 | 1018.8 |
| 20260502062519 | 54 | 322 | 0.0 | 0.0 | 0.00 | 0.48 | 0.00 | 1 | 1018.7 |
| 20260502062019 | 54 | 322 | 0.0 | 0.0 | 0.00 | 0.48 | 0.00 | 1 | 1018.7 |
| 20260502060913 | 54 | 322 | 0.0 | 1.0 | 0.00 | 0.48 | 0.00 | 1 | 1018.8 |
| 20260502060412 | 54 | 322 | 0.0 | 1.0 | 0.00 | 0.48 | 0.00 | 1 | 1018.9 |
| 20260502055910 | 54 | 322 | 0.0 | 0.0 | 0.00 | 0.48 | 0.00 | 1 | 1018.8 |
| 20260502055413 | 54 | 322 | 0.0 | 1.0 | 0.00 | 0.48 | 0.00 | 1 | 1018.8 |
| 20260502055409 | 54 | 322 | 0.0 | 1.0 | 0.00 | 0.48 | 0.00 | 1 | 1018.8 |
| 20260502055014 | 54 | 322 | 0.0 | 1.0 | 0.00 | 0.48 | 0.00 | 1 | 1018.8 |
| 20260502053907 | 54 | 322 | 0.0 | 1.0 | 0.00 | 0.48 | 0.00 | 1 | 1018.7 |
| 20260502053406 | 54 | 322 | 0.0 | 1.0 | 0.00 | 0.48 | 0.00 | 1 | 1018.7 |
| 20260502052907 | 54 | 322 | 0.0 | 1.0 | 0.00 | 0.48 | 0.00 | 1 | 1018.7 |
| 20260502052409 | 54 | 322 | 0.0 | 0.0 | 0.00 | 0.48 | 0.00 | 1 | 1018.5 |
| 20260502052405 | 54 | 322 | 0.0 | 0.0 | 0.00 | 0.48 | 0.00 | 1 | 1018.6 |
| 20260502052010 | 54 | 322 | 0.0 | 0.0 | 0.00 | 0.48 | 0.00 | 1 | 1018.6 |
| 20260502051510 | 54 | 322 | 0.0 | 0.0 | 0.00 | 0.48 | 0.00 | 1 | 1018.6 |
| 20260502050405 | 54 | 322 | 0.0 | 0.0 | 0.00 | 0.48 | 0.00 | 1 | 1018.7 |
| 20260502045905 | 54 | 322 | 0.0 | 0.0 | 0.00 | 0.48 | 0.48 | 1 | 1018.7 |
| 20260502045404 | 54 | 322 | 0.0 | 0.0 | 0.00 | 0.48 | 0.48 | 1 | 1018.8 |
| 20260502044902 | 54 | 322 | 0.0 | 0.0 | 0.00 | 0.48 | 0.48 | 1 | 1018.8 |
| 20260502044404 | 54 | 322 | 0.0 | 0.0 | 0.00 | 0.48 | 0.48 | 1 | 1018.9 |
| 20260502043903 | 55 | 322 | 0.0 | 0.0 | 0.00 | 0.48 | 0.48 | 1 | 1018.8 |
| 20260502043407 | 55 | 322 | 0.0 | 0.0 | 0.00 | 0.48 | 0.48 | 1 | 1018.5 |
| 20260502043403 | 55 | 322 | 0.0 | 0.0 | 0.00 | 0.48 | 0.48 | 1 | 1018.6 |
| 20260502042402 | 55 | 322 | 0.0 | 0.0 | 0.00 | 0.48 | 0.48 | 1 | 1018.3 |
| 20260502041903 | 55 | 322 | 0.0 | 0.0 | 0.00 | 0.48 | 0.48 | 1 | 1018.3 |
| 20260502041407 | 56 | 322 | 0.0 | 1.0 | 0.00 | 0.48 | 0.48 | 1 | 1018.3 |
| 20260502041403 | 55 | 322 | 0.0 | 0.0 | 0.00 | 0.48 | 0.48 | 1 | 1018.2 |
| 20260502041006 | 55 | 322 | 0.0 | 0.0 | 0.00 | 0.48 | 0.48 | 1 | 1018.3 |
| 20260502035900 | 56 | 322 | 0.0 | 1.0 | 0.00 | 0.48 | 0.48 | 1 | 1018.3 |
| 20260502035359 | 56 | 322 | 0.0 | 2.0 | 0.00 | 0.48 | 0.48 | 1 | 1018.2 |
| 20260502034858 | 56 | 322 | 0.0 | 2.0 | 0.00 | 0.49 | 0.48 | 1 | 1018.2 |
| 20260502034358 | 56 | 312 | 0.0 | 2.0 | 0.00 | 0.49 | 0.48 | 1 | 1018.2 |
| 20260502033858 | 56 | 14 | 0.0 | 1.0 | 0.00 | 0.49 | 0.48 | 1 | 1018.2 |
| 20260502033403 | 56 | 355 | 0.0 | 2.0 | 0.00 | 0.49 | 0.48 | 1 | 1018.1 |
| 20260502033359 | 56 | 27 | 0.0 | 1.0 | 0.00 | 0.49 | 0.48 | 1 | 1018.2 |
| 20260502032359 | 56 | 37 | 0.0 | 2.0 | 0.00 | 0.49 | 0.48 | 1 | 1018.1 |
| 20260502031859 | 56 | 355 | 0.0 | 1.0 | 0.00 | 0.50 | 0.48 | 1 | 1018.1 |
| 20260502031359 | 56 | 355 | 0.0 | 1.0 | 0.00 | 0.50 | 0.48 | 1 | 1018.2 |
| 20260502030903 | 56 | 355 | 0.0 | 2.0 | 0.00 | 0.50 | 0.48 | 1 | 1018.1 |
| 20260502030859 | 56 | 355 | 0.0 | 1.0 | 0.00 | 0.50 | 0.48 | 1 | 1018.1 |
| 20260502025858 | 56 | 355 | 0.0 | 2.0 | 0.00 | 0.50 | 0.48 | 1 | 1017.9 |